sat.trackr.live / text

‹ back to catalog

STARLINK-34324

NORAD 64207 · 2025-117E

PAYLOAD ACTIVE UNKNOWN

§ Identity

Operator
Country
US
Launch date
2025-05-31
Launch site
AFWTR
Launch vehicle
Mass (kg)
RCS (m²)

Purposes: comms

External: N2YO · Heavens-Above · Gunter

§ Orbital elements

Epoch: 2026-05-25T00:27:55.867104Z

Period
94.10 min
Inclination
53.1574°
Eccentricity
0.0001095
Mean motion
15.30208640 rev/d
Perigee alt
474.4 km
Apogee alt
475.9 km
Semi-major
6,853.3 km
B*
4.8962e-4
RAAN
44.9505°
Arg perigee
54.5713°
Mean anomaly
305.5390°
Rev number
5,518

§ Raw data

STARLINK-343241 64207U 25117E   26145.01939661  .00014174  00000+0  48962-3 0  99962 64207  53.1574  44.9505 0001095  54.5713 305.5390 15.30208640 55186

JSON: /api/v1/satellites/64207 · /tle

For live sub-satellite position, see the globe view (requires WebGL).

§ Visibility from observer

Set your observer location to see the next 7 days of passes ≥ 10°. The values pass through the URL so the page stays shareable.

No JS? Fill the form by hand. The geolocation button needs JavaScript.